Simultaneous Nadir Overpasses (SNOs) Predictions

Prediction of SNOs between NOAA-20 and METOP-C Satellite Orbit:

Table of predicted SNOs for the next 14.0 days since TLE Epoch: 1/14/2023
Index Date (NOAA-20) Time (NOAA-20) Lat,Lon (NOAA-20) SZA (NOAA-20 ) Date (METOP-C) Time (METOP-C) Lat,Lon (METOP-C) SZA (METOP-C ) Distance(km) Time Diff (sec)
1 01/17/2023 05:29:57 73.36, 87.99 94.40 01/17/2023 05:31:04 73.30, 90.40 94.21 77.22 67
2 01/17/2023 06:20:38 -73.22,-104.39 85.77 01/17/2023 06:21:48 -73.16,-102.59 85.93 58.33 70
3 01/17/2023 07:11:21 73.06, 63.27 94.06 01/17/2023 07:12:32 72.98, 64.35 93.90 36.37 71
4 01/17/2023 08:02:02 -72.93,-129.12 86.11 01/17/2023 08:03:15 -72.89,-128.52 86.19 20.21 73
5 01/17/2023 08:52:45 72.76, 38.53 93.71 01/17/2023 08:53:58 72.75, 38.53 93.69 1.51 73
6 01/17/2023 09:43:29 -72.78,-154.18 86.28 01/17/2023 09:44:39 -72.76,-154.12 86.32 2.97 70
7 01/17/2023 10:34:15 72.77, 13.14 93.71 01/17/2023 10:35:19 72.78, 13.25 93.70 3.59 64
8 01/17/2023 11:24:58 -72.73,-179.46 86.35 01/17/2023 11:26:01 -72.74,-179.50 86.35 1.49 63
9 01/17/2023 12:15:44 72.72, -12.13 93.64 01/17/2023 12:16:41 72.75, -12.14 93.66 3.52 57
10 01/17/2023 13:06:28 -72.74, 155.15 86.35 01/17/2023 13:07:23 -72.72, 155.11 86.39 2.93 55
11 01/17/2023 13:57:14 72.73, -37.52 93.63 01/17/2023 13:58:03 72.73, -37.53 93.63 0.52 49
12 01/17/2023 14:47:58 -72.74, 129.77 86.36 01/17/2023 14:48:44 -72.74, 129.82 86.38 1.78 46
13 01/17/2023 15:38:44 72.73, -62.90 93.62 01/17/2023 15:39:25 72.71, -62.92 93.59 2.83 41
14 01/17/2023 16:29:27 -72.70, 104.49 86.43 01/17/2023 16:30:06 -72.72, 104.44 86.41 3.14 39
15 01/17/2023 17:20:14 72.74, -88.28 93.62 01/17/2023 17:20:46 72.73, -88.20 93.60 2.77 32
16 01/17/2023 18:10:57 -72.70, 79.11 86.44 01/17/2023 18:11:28 -72.70, 79.05 86.44 2.05 31
17 01/17/2023 19:01:43 72.69,-113.56 93.55 01/17/2023 19:02:08 72.71,-113.59 93.57 2.39 25
18 01/17/2023 19:52:27 -72.70, 53.72 86.44 01/17/2023 19:52:49 -72.72, 53.76 86.43 2.39 22
19 01/17/2023 20:43:13 72.69,-138.95 93.54 01/17/2023 20:43:30 72.69,-138.98 93.53 1.40 17
20 01/17/2023 21:33:56 -72.71, 28.34 86.45 01/17/2023 21:34:10 -72.70, 28.38 86.47 1.62 14
21 01/17/2023 22:24:42 72.70,-164.33 93.53 01/17/2023 22:24:50 72.71,-164.26 93.54 2.75 8
22 01/17/2023 23:15:25 -72.66, 3.06 86.52 01/17/2023 23:15:32 -72.68, 2.99 86.50 2.80 7
23 01/18/2023 00:06:12 72.70, 170.29 93.52 01/18/2023 00:06:12 72.69, 170.35 93.51 2.62 0
24 01/18/2023 00:56:55 -72.67, -22.32 86.53 01/18/2023 00:56:54 -72.65, -22.40 86.54 3.07 1
25 01/18/2023 01:47:41 72.66, 145.01 93.46 01/18/2023 01:47:34 72.67, 144.96 93.47 1.78 7
26 01/18/2023 02:38:25 -72.67, -47.70 86.54 01/18/2023 02:38:15 -72.68, -47.68 86.53 1.11 10
27 01/18/2023 03:29:11 72.66, 119.62 93.45 01/18/2023 03:28:56 72.64, 119.57 93.44 2.82 15
28 01/18/2023 04:19:55 -72.68, -73.09 86.55 01/18/2023 04:19:37 -72.66, -73.07 86.56 2.35 18
29 01/18/2023 05:10:41 72.67, 94.24 93.44 01/18/2023 05:10:17 72.67, 94.29 93.45 1.62 24
30 01/18/2023 06:01:24 -72.63, -98.37 86.61 01/18/2023 06:00:59 -72.63, -98.46 86.60 3.00 25
31 01/18/2023 06:52:11 72.67, 68.86 93.43 01/18/2023 06:51:39 72.64, 68.90 93.41 3.26 32
32 01/18/2023 07:42:54 -72.63,-123.75 86.62 01/18/2023 07:42:20 -72.66,-123.74 86.59 2.78 34
33 01/18/2023 08:33:40 72.62, 43.58 93.37 01/18/2023 08:33:01 72.62, 43.51 93.38 2.22 39
34 01/18/2023 09:24:24 -72.64,-149.14 86.63 01/18/2023 09:23:42 -72.64,-149.13 86.62 0.39 42
35 01/18/2023 10:15:10 72.63, 18.19 93.36 01/18/2023 10:14:22 72.65, 18.23 93.39 2.35 48
36 01/18/2023 11:05:54 -72.64,-174.52 86.64 01/18/2023 11:05:04 -72.61,-174.52 86.66 3.47 50
37 01/18/2023 11:56:40 72.63, -7.19 93.35 01/18/2023 11:55:44 72.62, -7.16 93.35 1.47 56
38 01/18/2023 12:47:24 -72.65, 160.10 86.65 01/18/2023 12:46:25 -72.64, 160.20 86.65 3.45 59
39 01/18/2023 13:38:09 72.59, -32.47 93.29 01/18/2023 13:37:06 72.60, -32.55 93.32 2.98 63
40 01/18/2023 14:28:53 -72.60, 134.82 86.71 01/18/2023 14:27:47 -72.62, 134.81 86.68 1.58 66
41 01/18/2023 15:19:39 72.59, -57.85 93.28 01/18/2023 15:18:28 72.58, -57.94 93.28 3.33 71
42 01/18/2023 16:10:23 -72.61, 109.43 86.72 01/18/2023 16:09:09 -72.59, 109.42 86.72 1.61 74
43 01/18/2023 17:01:05 72.39, -82.83 93.05 01/18/2023 16:59:53 72.40, -83.63 93.11 27.11 72
44 01/18/2023 17:51:48 -72.36, 84.56 87.01 01/18/2023 17:50:35 -72.36, 83.63 86.93 31.44 73
45 01/18/2023 18:42:29 72.09,-107.61 92.70 01/18/2023 18:41:20 72.12,-109.52 92.85 65.29 69
46 01/18/2023 19:33:12 -72.06, 59.77 87.35 01/18/2023 19:32:03 -72.03, 57.65 87.24 72.82 69



Historial Predications of SNOs between NOAA-20 and METOP-C
